Location: Karcze
(52.0945°N, 22.4786°E)
Time: 07:40:29
(UTC+00:00)

Transit 2A Rocket - Pass Details

Date: 31 July 2021
Orbit: 586 x 917 km, 66.7° (Epoch: 24 September)

Event Time Altitude Azimuth Distance (km) Brightness Sun altitude
Rises 23:12:37 0° 306° (NW) 3,312 8.7 -19.4°
Reaches altitude 10° 23:17:20 10° 269° (W) 2,463 7.5 -19.3°
Maximum altitude 23:18:28 11° 258° (WSW) 2,438 7.4 -19.3°
Enters shadow 23:19:07 10° 251° (WSW) 2,461 7.3 -19.3°
Drops below altitude 10° 23:19:37 10° 246° (WSW) 2,497 - -19.3°
Sets 23:24:35 0° 210° (SSW) 3,494 - -19.1°
